Погода в Подгорном

Россия / Новгородская область     58°46′22″N   32°48′05″E
темп.,
°C
ветер,
м/с
пор.,
м/с
влажн.,
%
обл.,
%
осадки,
мм/ч
давл.,
гПа
погр.,
м
13 июня, вс
вс1300:00+13ююв23955 0.0 100454
03:00+12ююв25950 0.0 100390
06:00+14ююв279493 0.0 1003178
09:00+20ююв35685 0.0 1003571
12:00+24ю464413 0.0 10022160
15:00+23ююз5656100 0.0 10031641
18:00+19юз358598 0.8 1004373
21:00+17з2393100 3.4 100551
14 июня, пн
пн1400:00+13зсз389635 0.0 1008220
03:00+11з259958 0.0 1009117
06:00+12сз2598100 0.0 1012228
09:00+13ссз478874 0.0 1014611
12:00+19ссз345052 0.0 10151566
15:00+21ссз343945 0.0 10151810
18:00+20ссз2344100 0.0 10151563
21:00+15с116961 0.0 101511
15 июня, вт
вт1500:00+11ю117561 0.0 101510
03:00+10ю247739 0.0 101463
06:00+12ююз277762 0.0 1013194
09:00+18юз4755100 0.0 1012729
12:00+21юз5739100 0.0 10111465
15:00+22зюз5847100 0.0 10101650
18:00+14з1898100 1.6 1011392
21:00+14юз2699100 2.0 1011272
16 июня, ср
ср1600:00+12ююз259926 0.3 1011106
03:00+10сз25975 0.3 1013109
06:00+11сз28945 0.0 1014262
09:00+16сз365870 0.0 1016703
12:00+19сз573889 0.0 10172201
15:00+20сз5733100 0.0 10182338
18:00+19сз47396 0.0 10182005
21:00+12сз276210 0.0 1020150
17 июня, чт
чт1700:00+9сз226920 0.0 102214
03:00+7з12715 0.0 102411
06:00+10зюз23685 0.0 102599
09:00+16з245073 0.0 1025527
12:00+21зсз35415 0.0 10251536
15:00+22сз343778 0.0 10251986
18:00+22сз244657 0.0 10251863
21:00+17юз11685 0.0 102511